^^
Station Historical Data
Daily Summary for April 9, 2019 Units:  English    Metric   Both
« Previous Day
Next Day »
Daily Weekly Monthly Yearly Custom
  High: Low: Average:
Temperature: 44.3 °F 27.6 °F 36.5 °F
Dew Point: 32.4 °F 22.5 °F 28.2 °F
Humidity: 89% 49% 72%
Wind Speed: 20.0mph 1.0mph 8.8mph
Wind Gust: 24.0mph - -
Wind- - SE
Pressure: 30.05 in 29.85 in -
Precipitation: 0.00 in    
Historical Graphs
 
 
Tabular Data for April 9, 2019
Time Temperature Dew Point Pressure Wind Wind Speed Wind Gust Humidity Rainfall Rate (Hourly) solar Conditions
00:04 44.3 °F 26.3 °F 29.88 in NW 4.0 mph 4.0 mph 49% 0.00 in 0.00 W/m2
00:09 44.1 °F 26.1 °F 29.88 in WNW 4.0 mph 4.0 mph 49% 0.00 in 0.00 W/m2
00:14 43.7 °F 26.3 °F 29.88 in WNW 4.0 mph 5.0 mph 50% 0.00 in 0.00 W/m2
00:19 43.2 °F 25.8 °F 29.88 in West 4.0 mph 5.0 mph 50% 0.00 in 0.00 W/m2
00:24 42.7 °F 25.8 °F 29.88 in West 3.0 mph 5.0 mph 51% 0.00 in 0.00 W/m2
00:29 42.3 °F 25.9 °F 29.88 in West 2.0 mph 5.0 mph 52% 0.00 in 0.00 W/m2
00:34 42.0 °F 26.1 °F 29.87 in West 3.0 mph 4.0 mph 53% 0.00 in 0.00 W/m2
00:39 41.8 °F 25.9 °F 29.87 in West 2.0 mph 4.0 mph 53% 0.00 in 0.00 W/m2
00:44 41.6 °F 25.7 °F 29.88 in West 3.0 mph 3.0 mph 53% 0.00 in 0.00 W/m2
00:49 41.5 °F 26.1 °F 29.88 in WSW 4.0 mph 4.0 mph 54% 0.00 in 0.00 W/m2
00:54 41.3 °F 25.9 °F 29.88 in WSW 4.0 mph 4.0 mph 54% 0.00 in 0.00 W/m2
00:59 41.1 °F 25.7 °F 29.88 in WSW 4.0 mph 4.0 mph 54% 0.00 in 0.00 W/m2
01:04 40.9 °F 26.0 °F 29.88 in WSW 3.0 mph 4.0 mph 55% 0.00 in 0.00 W/m2
01:09 40.9 °F 26.0 °F 29.88 in WSW 3.0 mph 4.0 mph 55% 0.00 in 0.00 W/m2
01:14 41.1 °F 26.1 °F 29.88 in WSW 3.0 mph 3.0 mph 55% 0.00 in 0.00 W/m2
01:19 41.3 °F 26.3 °F 29.88 in West 4.0 mph 4.0 mph 55% 0.00 in 0.00 W/m2
01:24 41.3 °F 25.9 °F 29.88 in West 3.0 mph 4.0 mph 54% 0.00 in 0.00 W/m2
01:29 41.3 °F 25.9 °F 29.88 in West 2.0 mph 4.0 mph 54% 0.00 in 0.00 W/m2
01:34 41.0 °F 26.1 °F 29.88 in West 2.0 mph 3.0 mph 55% 0.00 in 0.00 W/m2
01:39 40.9 °F 26.0 °F 29.88 in West 3.0 mph 3.0 mph 55% 0.00 in 0.00 W/m2
01:44 40.8 °F 26.3 °F 29.88 in West 3.0 mph 3.0 mph 56% 0.00 in 0.00 W/m2
01:49 40.7 °F 26.2 °F 29.88 in West 2.0 mph 3.0 mph 56% 0.00 in 0.00 W/m2
01:54 40.7 °F 26.2 °F 29.88 in West 2.0 mph 3.0 mph 56% 0.00 in 0.00 W/m2
01:59 40.8 °F 26.3 °F 29.88 in West 3.0 mph 3.0 mph 56% 0.00 in 0.00 W/m2
02:04 41.1 °F 26.6 °F 29.88 in West 3.0 mph 3.0 mph 56% 0.00 in 0.00 W/m2
02:09 41.1 °F 26.6 °F 29.88 in West 2.0 mph 3.0 mph 56% 0.00 in 0.00 W/m2
02:14 41.2 °F 26.2 °F 29.88 in West 3.0 mph 4.0 mph 55% 0.00 in 0.00 W/m2
02:19 41.1 °F 26.6 °F 29.88 in West 3.0 mph 4.0 mph 56% 0.00 in 0.00 W/m2
02:24 41.0 °F 26.5 °F 29.87 in West 3.0 mph 3.0 mph 56% 0.00 in 0.00 W/m2
02:29 40.9 °F 26.4 °F 29.88 in West 2.0 mph 3.0 mph 56% 0.00 in 0.00 W/m2
02:34 40.9 °F 26.4 °F 29.87 in West 2.0 mph 3.0 mph 56% 0.00 in 0.00 W/m2
02:39 40.6 °F 26.1 °F 29.87 in West 2.0 mph 3.0 mph 56% 0.00 in 0.00 W/m2
02:44 40.2 °F 26.2 °F 29.87 in West 2.0 mph 3.0 mph 57% 0.00 in 0.00 W/m2
02:49 39.7 °F 26.1 °F 29.87 in West 3.0 mph 3.0 mph 58% 0.00 in 0.00 W/m2
02:54 39.3 °F 25.7 °F 29.87 in West 3.0 mph 4.0 mph 58% 0.00 in 0.00 W/m2
02:59 39.1 °F 26.0 °F 29.87 in West 4.0 mph 4.0 mph 59% 0.00 in 0.00 W/m2
03:04 39.1 °F 26.0 °F 29.87 in West 3.0 mph 4.0 mph 59% 0.00 in 0.00 W/m2
03:09 39.2 °F 26.5 °F 29.87 in West 3.0 mph 4.0 mph 60% 0.00 in 0.00 W/m2
03:14 39.1 °F 26.4 °F 29.87 in West 3.0 mph 4.0 mph 60% 0.00 in 0.00 W/m2
03:19 39.0 °F 26.3 °F 29.87 in WNW 4.0 mph 4.0 mph 60% 0.00 in 0.00 W/m2
03:24 38.9 °F 26.6 °F 29.87 in WNW 3.0 mph 4.0 mph 61% 0.00 in 0.00 W/m2
03:29 39.0 °F 26.7 °F 29.87 in WNW 3.0 mph 4.0 mph 61% 0.00 in 0.00 W/m2
03:34 39.1 °F 26.8 °F 29.87 in WNW 3.0 mph 4.0 mph 61% 0.00 in 0.00 W/m2
03:39 39.3 °F 26.6 °F 29.87 in WNW 4.0 mph 4.0 mph 60% 0.00 in 0.00 W/m2
03:44 39.3 °F 26.6 °F 29.87 in WNW 3.0 mph 4.0 mph 60% 0.00 in 0.00 W/m2
03:49 39.3 °F 26.6 °F 29.87 in WNW 4.0 mph 4.0 mph 60% 0.00 in 0.00 W/m2
03:54 39.2 °F 26.9 °F 29.87 in NW 4.0 mph 4.0 mph 61% 0.00 in 0.00 W/m2
03:59 39.0 °F 26.7 °F 29.87 in NW 3.0 mph 5.0 mph 61% 0.00 in 0.00 W/m2
04:04 38.7 °F 26.8 °F 29.87 in NW 3.0 mph 5.0 mph 62% 0.00 in 0.00 W/m2
04:09 38.5 °F 26.6 °F 29.87 in NW 3.0 mph 5.0 mph 62% 0.00 in 0.00 W/m2
04:14 38.3 °F 26.8 °F 29.87 in NNW 3.0 mph 5.0 mph 63% 0.00 in 0.00 W/m2
04:19 38.0 °F 26.5 °F 29.87 in NNW 3.0 mph 5.0 mph 63% 0.00 in 0.00 W/m2
04:24 37.9 °F 26.8 °F 29.86 in NNW 3.0 mph 4.0 mph 64% 0.00 in 0.00 W/m2
04:29 37.9 °F 26.8 °F 29.87 in NNW 2.0 mph 4.0 mph 64% 0.00 in 0.00 W/m2
04:34 38.1 °F 26.6 °F 29.86 in NNW 3.0 mph 3.0 mph 63% 0.00 in 0.00 W/m2
04:39 38.8 °F 26.9 °F 29.86 in NW 3.0 mph 3.0 mph 62% 0.00 in 0.00 W/m2
04:44 39.3 °F 27.0 °F 29.86 in NW 3.0 mph 4.0 mph 61% 0.00 in 0.00 W/m2
04:49 39.3 °F 27.0 °F 29.86 in NW 3.0 mph 5.0 mph 61% 0.00 in 0.00 W/m2
04:54 39.2 °F 26.9 °F 29.86 in NW 2.0 mph 5.0 mph 61% 0.00 in 0.00 W/m2
04:59 38.8 °F 26.9 °F 29.86 in NW 2.0 mph 4.0 mph 62% 0.00 in 0.00 W/m2
05:04 38.3 °F 26.4 °F 29.86 in NW 2.0 mph 3.0 mph 62% 0.00 in 0.00 W/m2
05:09 37.2 °F 25.8 °F 29.86 in NW 1.0 mph 3.0 mph 63% 0.00 in 0.00 W/m2
05:14 36.3 °F 26.0 °F 29.86 in NW 1.0 mph 3.0 mph 66% 0.00 in 0.00 W/m2
05:19 36.0 °F 26.1 °F 29.86 in NW 1.0 mph 2.0 mph 67% 0.00 in 0.00 W/m2
05:24 35.7 °F 26.2 °F 29.86 in NW 2.0 mph 3.0 mph 68% 0.00 in 0.00 W/m2
05:29 35.8 °F 26.3 °F 29.86 in WNW 3.0 mph 4.0 mph 68% 0.00 in 0.00 W/m2
05:34 35.8 °F 26.3 °F 29.86 in WNW 3.0 mph 4.0 mph 68% 0.00 in 0.00 W/m2
05:39 35.9 °F 26.4 °F 29.86 in WNW 4.0 mph 4.0 mph 68% 0.00 in 0.00 W/m2
05:44 36.2 °F 26.6 °F 29.86 in WNW 4.0 mph 4.0 mph 68% 0.00 in 0.00 W/m2
05:49 36.4 °F 26.5 °F 29.86 in WNW 3.0 mph 4.0 mph 67% 0.00 in 0.00 W/m2
05:54 36.4 °F 26.8 °F 29.85 in NNW 3.0 mph 4.0 mph 68% 0.00 in 0.00 W/m2
05:59 36.3 °F 27.1 °F 29.86 in North 4.0 mph 4.0 mph 69% 0.00 in 0.00 W/m2
06:04 36.2 °F 27.0 °F 29.86 in North 4.0 mph 4.0 mph 69% 0.00 in 0.00 W/m2
06:09 36.3 °F 27.1 °F 29.86 in North 4.0 mph 4.0 mph 69% 0.00 in 0.00 W/m2
06:14 36.3 °F 27.1 °F 29.86 in North 3.0 mph 4.0 mph 69% 0.00 in 0.00 W/m2
06:19 36.2 °F 27.4 °F 29.87 in North 4.0 mph 6.0 mph 70% 0.00 in 0.00 W/m2
06:24 36.2 °F 27.4 °F 29.87 in North 4.0 mph 6.0 mph 70% 0.00 in 0.00 W/m2
06:29 36.3 °F 27.4 °F 29.87 in NNE 3.0 mph 7.0 mph 70% 0.00 in 0.00 W/m2
06:34 36.4 °F 27.5 °F 29.87 in NNE 5.0 mph 7.0 mph 70% 0.00 in 0.00 W/m2
06:39 36.6 °F 27.7 °F 29.87 in NE 6.0 mph 8.0 mph 70% 0.00 in 0.00 W/m2
06:44 36.9 °F 27.7 °F 29.87 in NE 4.0 mph 9.0 mph 69% 0.00 in 0.00 W/m2
06:49 37.1 °F 27.9 °F 29.87 in NE 5.0 mph 9.0 mph 69% 0.00 in 0.00 W/m2
06:54 36.8 °F 27.6 °F 29.87 in East 5.0 mph 6.0 mph 69% 0.00 in 0.00 W/m2
06:59 36.2 °F 27.4 °F 29.87 in East 5.0 mph 8.0 mph 70% 0.00 in 5.00 W/m2
07:04 36.0 °F 27.5 °F 29.87 in NE 6.0 mph 8.0 mph 71% 0.00 in 7.00 W/m2
07:09 36.1 °F 27.6 °F 29.87 in ENE 7.0 mph 10.0 mph 71% 0.00 in 5.00 W/m2
07:14 36.4 °F 27.9 °F 29.87 in East 3.0 mph 10.0 mph 71% 0.00 in 5.00 W/m2
07:19 36.1 °F 27.6 °F 29.87 in East 3.0 mph 8.0 mph 71% 0.00 in 7.00 W/m2
07:24 35.7 °F 27.6 °F 29.87 in East 2.0 mph 6.0 mph 72% 0.00 in 11.00 W/m2
07:29 35.5 °F 27.7 °F 29.87 in ESE 3.0 mph 5.0 mph 73% 0.00 in 14.00 W/m2
07:34 35.3 °F 27.8 °F 29.87 in SE 4.0 mph 5.0 mph 74% 0.00 in 23.00 W/m2
07:39 35.1 °F 28.0 °F 29.87 in East 5.0 mph 7.0 mph 75% 0.00 in 33.00 W/m2
07:44 35.4 °F 28.3 °F 29.87 in East 2.0 mph 7.0 mph 75% 0.00 in 33.00 W/m2
07:49 35.6 °F 28.1 °F 29.87 in East 3.0 mph 5.0 mph 74% 0.00 in 35.00 W/m2
07:54 35.8 °F 28.3 °F 29.87 in East 3.0 mph 5.0 mph 74% 0.00 in 42.00 W/m2
07:59 36.0 °F 28.5 °F 29.87 in East 3.0 mph 6.0 mph 74% 0.00 in 33.00 W/m2
08:04 36.4 °F 28.9 °F 29.88 in East 2.0 mph 6.0 mph 74% 0.00 in 49.00 W/m2
08:09 36.6 °F 29.4 °F 29.88 in East 1.0 mph 6.0 mph 75% 0.00 in 62.00 W/m2
08:14 36.8 °F 29.6 °F 29.88 in East 2.0 mph 3.0 mph 75% 0.00 in 70.00 W/m2
08:19 37.0 °F 29.5 °F 29.88 in NE 6.0 mph 7.0 mph 74% 0.00 in 62.00 W/m2
08:24 37.3 °F 29.8 °F 29.88 in NE 5.0 mph 9.0 mph 74% 0.00 in 63.00 W/m2
08:29 38.0 °F 30.1 °F 29.89 in NE 7.0 mph 10.0 mph 73% 0.00 in 65.00 W/m2
08:34 38.6 °F 30.4 °F 29.89 in NE 6.0 mph 12.0 mph 72% 0.00 in 81.00 W/m2
08:39 38.7 °F 30.1 °F 29.89 in ENE 12.0 mph 14.0 mph 71% 0.00 in 98.00 W/m2
08:44 38.7 °F 30.1 °F 29.89 in East 10.0 mph 14.0 mph 71% 0.00 in 109.00 W/m2
08:49 38.5 °F 30.3 °F 29.89 in ENE 12.0 mph 14.0 mph 72% 0.00 in 135.00 W/m2
08:54 38.5 °F 30.6 °F 29.89 in ENE 13.0 mph 16.0 mph 73% 0.00 in 153.00 W/m2
08:59 38.5 °F 30.6 °F 29.90 in ENE 7.0 mph 16.0 mph 73% 0.00 in 162.00 W/m2
09:04 38.2 °F 30.3 °F 29.90 in NE 11.0 mph 17.0 mph 73% 0.00 in 127.00 W/m2
09:09 37.9 °F 30.4 °F 29.90 in ENE 13.0 mph 19.0 mph 74% 0.00 in 148.00 W/m2
09:14 37.4 °F 30.2 °F 29.90 in ENE 15.0 mph 21.0 mph 75% 0.00 in 141.00 W/m2
09:19 37.0 °F 30.5 °F 29.90 in ENE 8.0 mph 21.0 mph 77% 0.00 in 163.00 W/m2
09:24 36.7 °F 30.8 °F 29.90 in NE 9.0 mph 18.0 mph 79% 0.00 in 190.00 W/m2
09:29 36.5 °F 31.2 °F 29.90 in ENE 17.0 mph 18.0 mph 81% 0.00 in 186.00 W/m2
09:34 36.3 °F 31.3 °F 29.90 in ENE 8.0 mph 18.0 mph 82% 0.00 in 183.00 W/m2
09:39 35.9 °F 30.9 °F 29.91 in ENE 12.0 mph 18.0 mph 82% 0.00 in 213.00 W/m2
09:44 35.4 °F 30.8 °F 29.91 in ENE 12.0 mph 16.0 mph 83% 0.00 in 186.00 W/m2
09:49 34.5 °F 30.2 °F 29.91 in ENE 12.0 mph 16.0 mph 84% 0.00 in 162.00 W/m2
09:54 34.2 °F 30.2 °F 29.91 in ENE 11.0 mph 17.0 mph 85% 0.00 in 202.00 W/m2
09:59 34.2 °F 30.4 °F 29.91 in NE 8.0 mph 17.0 mph 86% 0.00 in 227.00 W/m2
10:04 34.3 °F 30.8 °F 29.92 in ENE 10.0 mph 17.0 mph 87% 0.00 in 192.00 W/m2
10:09 34.2 °F 30.7 °F 29.92 in ENE 15.0 mph 17.0 mph 87% 0.00 in 153.00 W/m2
10:14 34.1 °F 30.6 °F 29.92 in ENE 12.0 mph 17.0 mph 87% 0.00 in 128.00 W/m2
10:19 33.9 °F 30.7 °F 29.92 in ENE 13.0 mph 17.0 mph 88% 0.00 in 146.00 W/m2
10:24 33.7 °F 30.5 °F 29.92 in ENE 12.0 mph 20.0 mph 88% 0.00 in 146.00 W/m2
10:29 33.7 °F 30.8 °F 29.92 in ENE 14.0 mph 20.0 mph 89% 0.00 in 167.00 W/m2
10:34 33.8 °F 30.9 °F 29.92 in East 14.0 mph 19.0 mph 89% 0.00 in 167.00 W/m2
10:39 33.8 °F 30.9 °F 29.92 in ENE 12.0 mph 19.0 mph 89% 0.00 in 142.00 W/m2
10:44 34.0 °F 31.1 °F 29.93 in East 10.0 mph 18.0 mph 89% 0.00 in 162.00 W/m2
10:49 34.3 °F 31.4 °F 29.93 in ENE 11.0 mph 20.0 mph 89% 0.00 in 179.00 W/m2
10:54 34.3 °F 31.4 °F 29.93 in ENE 10.0 mph 20.0 mph 89% 0.00 in 190.00 W/m2
10:59 34.6 °F 31.7 °F 29.93 in ENE 10.0 mph 17.0 mph 89% 0.00 in 248.00 W/m2
11:04 34.7 °F 31.8 °F 29.93 in ENE 12.0 mph 22.0 mph 89% 0.00 in 302.00 W/m2
11:09 35.1 °F 32.2 °F 29.93 in East 17.0 mph 22.0 mph 89% 0.00 in 279.00 W/m2
11:14 35.4 °F 32.2 °F 29.93 in East 20.0 mph 20.0 mph 88% 0.00 in 299.00 W/m2
11:19 35.4 °F 31.9 °F 29.93 in ENE 13.0 mph 24.0 mph 87% 0.00 in 279.00 W/m2
11:24 35.3 °F 31.8 °F 29.93 in ENE 15.0 mph 24.0 mph 87% 0.00 in 258.00 W/m2
11:29 35.5 °F 32.3 °F 29.93 in ENE 12.0 mph 21.0 mph 88% 0.00 in 318.00 W/m2
11:34 35.6 °F 32.1 °F 29.93 in ENE 15.0 mph 24.0 mph 87% 0.00 in 332.00 W/m2
11:39 35.7 °F 31.9 °F 29.93 in NE 11.0 mph 24.0 mph 86% 0.00 in 332.00 W/m2
11:44 36.0 °F 32.2 °F 29.92 in ENE 11.0 mph 22.0 mph 86% 0.00 in 287.00 W/m2
11:49 36.2 °F 32.4 °F 29.92 in ENE 10.0 mph 20.0 mph 86% 0.00 in 311.00 W/m2
11:54 35.8 °F 31.7 °F 29.92 in East 17.0 mph 23.0 mph 85% 0.00 in 316.00 W/m2
11:59 36.0 °F 32.2 °F 29.92 in East 16.0 mph 23.0 mph 86% 0.00 in 359.00 W/m2
12:04 35.9 °F 31.8 °F 29.93 in ENE 15.0 mph 24.0 mph 85% 0.00 in 374.00 W/m2
12:09 36.1 °F 32.0 °F 29.93 in ENE 18.0 mph 24.0 mph 85% 0.00 in 410.00 W/m2
12:14 36.1 °F 32.0 °F 29.93 in ENE 10.0 mph 24.0 mph 85% 0.00 in 348.00 W/m2
12:19 36.4 °F 32.3 °F 29.93 in NE 13.0 mph 22.0 mph 85% 0.00 in 367.00 W/m2
12:24 36.5 °F 32.1 °F 29.93 in ENE 15.0 mph 22.0 mph 84% 0.00 in 360.00 W/m2
12:29 36.6 °F 32.2 °F 29.93 in NE 18.0 mph 22.0 mph 84% 0.00 in 309.00 W/m2
12:34 36.5 °F 31.8 °F 29.93 in ENE 11.0 mph 21.0 mph 83% 0.00 in 292.00 W/m2
12:39 36.2 °F 31.5 °F 29.93 in NE 11.0 mph 21.0 mph 83% 0.00 in 278.00 W/m2
12:44 36.1 °F 31.7 °F 29.93 in ENE 14.0 mph 21.0 mph 84% 0.00 in 267.00 W/m2
12:49 35.7 °F 31.0 °F 29.93 in ENE 15.0 mph 23.0 mph 83% 0.00 in 251.00 W/m2
12:54 35.6 °F 31.2 °F 29.93 in ENE 10.0 mph 23.0 mph 84% 0.00 in 244.00 W/m2
12:59 35.6 °F 31.2 °F 29.93 in ENE 11.0 mph 21.0 mph 84% 0.00 in 253.00 W/m2
13:04 35.7 °F 31.3 °F 29.93 in ENE 16.0 mph 21.0 mph 84% 0.00 in 267.00 W/m2
13:09 35.6 °F 30.9 °F 29.94 in ENE 13.0 mph 20.0 mph 83% 0.00 in 279.00 W/m2
13:14 35.2 °F 30.6 °F 29.94 in East 16.0 mph 19.0 mph 83% 0.00 in 313.00 W/m2
13:19 35.5 °F 31.1 °F 29.94 in ENE 14.0 mph 22.0 mph 84% 0.00 in 348.00 W/m2
13:24 35.4 °F 30.8 °F 29.94 in East 14.0 mph 22.0 mph 83% 0.00 in 445.00 W/m2
13:29 35.8 °F 31.4 °F 29.94 in NE 11.0 mph 22.0 mph 84% 0.00 in 439.00 W/m2
13:34 36.2 °F 31.2 °F 29.95 in ENE 9.0 mph 20.0 mph 82% 0.00 in 476.00 W/m2
13:39 36.2 °F 30.9 °F 29.94 in East 17.0 mph 20.0 mph 81% 0.00 in 654.00 W/m2
13:44 36.9 °F 31.9 °F 29.94 in ENE 10.0 mph 21.0 mph 82% 0.00 in 671.00 W/m2
13:49 36.7 °F 30.8 °F 29.93 in ENE 19.0 mph 22.0 mph 79% 0.00 in 689.00 W/m2
13:54 37.2 °F 31.6 °F 29.93 in ENE 17.0 mph 22.0 mph 80% 0.00 in 682.00 W/m2
13:59 37.8 °F 31.2 °F 29.94 in ENE 15.0 mph 22.0 mph 77% 0.00 in 800.00 W/m2
14:04 37.9 °F 31.7 °F 29.93 in East 16.0 mph 22.0 mph 78% 0.00 in 494.00 W/m2
14:09 38.4 °F 31.5 °F 29.93 in East 15.0 mph 21.0 mph 76% 0.00 in 450.00 W/m2
14:14 37.8 °F 30.6 °F 29.93 in NE 11.0 mph 21.0 mph 75% 0.00 in 452.00 W/m2
14:19 37.9 °F 31.0 °F 29.93 in ENE 15.0 mph 21.0 mph 76% 0.00 in 510.00 W/m2
14:24 38.2 °F 31.3 °F 29.93 in ENE 17.0 mph 21.0 mph 76% 0.00 in 541.00 W/m2
14:29 38.1 °F 31.2 °F 29.93 in ENE 14.0 mph 20.0 mph 76% 0.00 in 454.00 W/m2
14:34 37.9 °F 31.0 °F 29.93 in ENE 15.0 mph 21.0 mph 76% 0.00 in 536.00 W/m2
14:39 38.2 °F 31.3 °F 29.93 in East 10.0 mph 22.0 mph 76% 0.00 in 482.00 W/m2
14:44 38.3 °F 31.4 °F 29.93 in East 7.0 mph 22.0 mph 76% 0.00 in 490.00 W/m2
14:49 38.5 °F 31.6 °F 29.93 in East 11.0 mph 22.0 mph 76% 0.00 in 548.00 W/m2
14:54 38.8 °F 31.6 °F 29.93 in ENE 11.0 mph 22.0 mph 75% 0.00 in 483.00 W/m2
14:59 38.7 °F 31.5 °F 29.93 in ESE 17.0 mph 21.0 mph 75% 0.00 in 457.00 W/m2
15:04 38.4 °F 30.5 °F 29.93 in East 16.0 mph 19.0 mph 73% 0.00 in 452.00 W/m2
15:09 38.5 °F 30.9 °F 29.93 in East 15.0 mph 21.0 mph 74% 0.00 in 471.00 W/m2
15:14 38.7 °F 31.1 °F 29.93 in East 13.0 mph 23.0 mph 74% 0.00 in 436.00 W/m2
15:19 38.8 °F 31.2 °F 29.93 in East 9.0 mph 23.0 mph 74% 0.00 in 434.00 W/m2
15:24 38.4 °F 30.8 °F 29.93 in East 15.0 mph 21.0 mph 74% 0.00 in 343.00 W/m2
15:29 38.6 °F 31.4 °F 29.93 in East 9.0 mph 21.0 mph 75% 0.00 in 367.00 W/m2
15:34 38.4 °F 30.5 °F 29.93 in ENE 14.0 mph 21.0 mph 73% 0.00 in 371.00 W/m2
15:39 38.0 °F 30.1 °F 29.93 in ENE 18.0 mph 24.0 mph 73% 0.00 in 432.00 W/m2
15:44 38.1 °F 30.5 °F 29.93 in ENE 9.0 mph 24.0 mph 74% 0.00 in 313.00 W/m2
15:49 38.4 °F 30.5 °F 29.93 in ENE 11.0 mph 23.0 mph 73% 0.00 in 338.00 W/m2
15:54 38.2 °F 30.6 °F 29.93 in East 14.0 mph 23.0 mph 74% 0.00 in 292.00 W/m2
15:59 38.3 °F 31.1 °F 29.93 in ESE 9.0 mph 22.0 mph 75% 0.00 in 301.00 W/m2
16:04 38.6 °F 31.0 °F 29.93 in ENE 16.0 mph 22.0 mph 74% 0.00 in 313.00 W/m2
16:09 37.8 °F 30.3 °F 29.93 in ENE 13.0 mph 20.0 mph 74% 0.00 in 339.00 W/m2
16:14 37.9 °F 30.7 °F 29.93 in East 13.0 mph 22.0 mph 75% 0.00 in 346.00 W/m2
16:19 37.8 °F 30.3 °F 29.93 in East 7.0 mph 22.0 mph 74% 0.00 in 403.00 W/m2
16:24 38.3 °F 30.7 °F 29.93 in ENE 13.0 mph 21.0 mph 74% 0.00 in 355.00 W/m2
16:29 38.4 °F 30.5 °F 29.93 in East 13.0 mph 18.0 mph 73% 0.00 in 287.00 W/m2
16:34 38.2 °F 30.3 °F 29.94 in East 14.0 mph 18.0 mph 73% 0.00 in 220.00 W/m2
16:39 38.0 °F 30.1 °F 29.94 in East 7.0 mph 18.0 mph 73% 0.00 in 186.00 W/m2
16:44 37.9 °F 30.0 °F 29.94 in East 8.0 mph 18.0 mph 73% 0.00 in 199.00 W/m2
16:49 37.8 °F 30.3 °F 29.94 in ENE 9.0 mph 18.0 mph 74% 0.00 in 220.00 W/m2
16:54 37.8 °F 30.3 °F 29.94 in East 6.0 mph 17.0 mph 74% 0.00 in 227.00 W/m2
16:59 37.9 °F 30.0 °F 29.94 in East 13.0 mph 19.0 mph 73% 0.00 in 221.00 W/m2
17:04 37.7 °F 30.2 °F 29.94 in East 11.0 mph 19.0 mph 74% 0.00 in 225.00 W/m2
17:09 37.8 °F 29.9 °F 29.94 in ENE 11.0 mph 19.0 mph 73% 0.00 in 243.00 W/m2
17:14 37.5 °F 30.0 °F 29.94 in ENE 11.0 mph 18.0 mph 74% 0.00 in 234.00 W/m2
17:19 37.6 °F 29.7 °F 29.94 in ENE 11.0 mph 18.0 mph 73% 0.00 in 216.00 W/m2
17:24 37.9 °F 30.4 °F 29.94 in ENE 11.0 mph 18.0 mph 74% 0.00 in 251.00 W/m2
17:29 37.8 °F 29.9 °F 29.95 in ENE 11.0 mph 18.0 mph 73% 0.00 in 257.00 W/m2
17:34 37.8 °F 29.6 °F 29.95 in ENE 11.0 mph 18.0 mph 72% 0.00 in 250.00 W/m2
17:39 38.0 °F 29.8 °F 29.95 in ENE 11.0 mph 18.0 mph 72% 0.00 in 250.00 W/m2
17:44 38.1 °F 29.9 °F 29.95 in ENE 11.0 mph 18.0 mph 72% 0.00 in 209.00 W/m2
17:49 37.8 °F 29.6 °F 29.95 in ENE 11.0 mph 18.0 mph 72% 0.00 in 179.00 W/m2
17:54 38.1 °F 29.9 °F 29.95 in ENE 11.0 mph 18.0 mph 72% 0.00 in 163.00 W/m2
17:59 38.0 °F 29.8 °F 29.95 in ENE 11.0 mph 18.0 mph 72% 0.00 in 142.00 W/m2
18:04 38.0 °F 29.4 °F 29.95 in ENE 11.0 mph 18.0 mph 71% 0.00 in 134.00 W/m2
18:09 38.0 °F 29.4 °F 29.95 in ENE 11.0 mph 18.0 mph 71% 0.00 in 127.00 W/m2
18:14 38.0 °F 29.4 °F 29.95 in ENE 11.0 mph 18.0 mph 71% 0.00 in 114.00 W/m2
18:19 38.0 °F 29.4 °F 29.96 in ENE 11.0 mph 18.0 mph 71% 0.00 in 109.00 W/m2
18:24 37.8 °F 29.2 °F 29.96 in ENE 11.0 mph 18.0 mph 71% 0.00 in 83.00 W/m2
18:29 37.6 °F 29.0 °F 29.96 in ENE 11.0 mph 18.0 mph 71% 0.00 in 67.00 W/m2
18:34 37.5 °F 29.3 °F 29.96 in ENE 11.0 mph 18.0 mph 72% 0.00 in 67.00 W/m2
18:39 37.4 °F 28.9 °F 29.96 in ENE 11.0 mph 18.0 mph 71% 0.00 in 65.00 W/m2
18:44 37.4 °F 28.9 °F 29.96 in ENE 11.0 mph 18.0 mph 71% 0.00 in 63.00 W/m2
18:49 37.5 °F 28.9 °F 29.96 in ENE 11.0 mph 18.0 mph 71% 0.00 in 63.00 W/m2
18:54 37.7 °F 28.8 °F 29.96 in ENE 11.0 mph 18.0 mph 70% 0.00 in 46.00 W/m2
18:59 37.6 °F 28.3 °F 29.96 in ENE 11.0 mph 18.0 mph 69% 0.00 in 44.00 W/m2
19:04 37.4 °F 28.2 °F 29.96 in ENE 11.0 mph 18.0 mph 69% 0.00 in 40.00 W/m2
19:09 37.2 °F 28.0 °F 29.97 in ENE 11.0 mph 18.0 mph 69% 0.00 in 35.00 W/m2
19:14 37.0 °F 28.1 °F 29.97 in ENE 11.0 mph 18.0 mph 70% 0.00 in 30.00 W/m2
19:19 36.8 °F 27.9 °F 29.97 in ENE 11.0 mph 18.0 mph 70% 0.00 in 25.00 W/m2
19:24 36.4 °F 27.5 °F 29.97 in ENE 11.0 mph 18.0 mph 70% 0.00 in 23.00 W/m2
19:29 36.2 °F 27.7 °F 29.97 in ENE 11.0 mph 18.0 mph 71% 0.00 in 21.00 W/m2
19:34 35.9 °F 27.4 °F 29.97 in ENE 11.0 mph 18.0 mph 71% 0.00 in 21.00 W/m2
19:39 35.8 °F 27.7 °F 29.97 in ENE 11.0 mph 18.0 mph 72% 0.00 in 16.00 W/m2
19:44 35.6 °F 27.5 °F 29.97 in ENE 11.0 mph 18.0 mph 72% 0.00 in 14.00 W/m2
19:49 35.4 °F 27.3 °F 29.98 in ENE 11.0 mph 18.0 mph 72% 0.00 in 14.00 W/m2
19:54 35.1 °F 27.0 °F 29.98 in ENE 11.0 mph 18.0 mph 72% 0.00 in 9.00 W/m2
19:59 34.7 °F 26.6 °F 29.98 in NE 9.0 mph 19.0 mph 72% 0.00 in 7.00 W/m2
20:04 34.5 °F 26.7 °F 29.98 in ENE 12.0 mph 19.0 mph 73% 0.00 in 5.00 W/m2
20:09 34.2 °F 26.4 °F 29.98 in ENE 16.0 mph 21.0 mph 73% 0.00 in 5.00 W/m2
20:14 33.9 °F 26.2 °F 29.99 in East 10.0 mph 21.0 mph 73% 0.00 in 5.00 W/m2
20:19 33.8 °F 26.1 °F 29.99 in ENE 13.0 mph 18.0 mph 73% 0.00 in 0.00 W/m2
20:24 33.6 °F 26.2 °F 29.99 in ENE 16.0 mph 17.0 mph 74% 0.00 in 0.00 W/m2
20:29 33.4 °F 26.0 °F 29.99 in ENE 12.0 mph 19.0 mph 74% 0.00 in 0.00 W/m2
20:34 33.2 °F 25.8 °F 30.00 in NE 9.0 mph 19.0 mph 74% 0.00 in 0.00 W/m2
20:39 33.0 °F 25.6 °F 30.00 in ENE 7.0 mph 20.0 mph 74% 0.00 in 0.00 W/m2
20:44 33.0 °F 25.9 °F 30.00 in ENE 10.0 mph 20.0 mph 75% 0.00 in 0.00 W/m2
20:49 32.9 °F 25.8 °F 30.01 in ENE 8.0 mph 15.0 mph 75% 0.00 in 0.00 W/m2
20:54 32.7 °F 25.6 °F 30.01 in East 11.0 mph 16.0 mph 75% 0.00 in 0.00 W/m2
20:59 32.6 °F 25.6 °F 30.01 in ENE 5.0 mph 16.0 mph 75% 0.00 in 0.00 W/m2
21:04 32.4 °F 25.4 °F 30.01 in ENE 9.0 mph 15.0 mph 75% 0.00 in 0.00 W/m2
21:09 32.3 °F 25.6 °F 30.01 in ENE 13.0 mph 15.0 mph 76% 0.00 in 0.00 W/m2
21:14 32.2 °F 25.5 °F 30.01 in ENE 15.0 mph 15.0 mph 76% 0.00 in 0.00 W/m2
21:19 32.1 °F 25.4 °F 30.01 in NE 6.0 mph 15.0 mph 76% 0.00 in 0.00 W/m2
21:24 32.0 °F 25.3 °F 30.01 in ENE 14.0 mph 15.0 mph 76% 0.00 in 0.00 W/m2
21:29 31.9 °F 25.2 °F 30.01 in ENE 9.0 mph 16.0 mph 76% 0.00 in 0.00 W/m2
21:34 31.7 °F 25.0 °F 30.01 in ENE 11.0 mph 16.0 mph 76% 0.00 in 0.00 W/m2
21:39 31.5 °F 25.1 °F 30.01 in NE 13.0 mph 15.0 mph 77% 0.00 in 0.00 W/m2
21:44 31.3 °F 24.9 °F 30.02 in ENE 16.0 mph 19.0 mph 77% 0.00 in 0.00 W/m2
21:49 31.0 °F 24.6 °F 30.02 in NE 7.0 mph 19.0 mph 77% 0.00 in 0.00 W/m2
21:54 30.7 °F 24.3 °F 30.02 in NE 10.0 mph 16.0 mph 77% 0.00 in 0.00 W/m2
21:59 30.6 °F 24.6 °F 30.02 in ENE 12.0 mph 16.0 mph 78% 0.00 in 0.00 W/m2
22:04 30.5 °F 24.5 °F 30.03 in ENE 5.0 mph 16.0 mph 78% 0.00 in 0.00 W/m2
22:09 30.4 °F 24.4 °F 30.03 in ENE 4.0 mph 15.0 mph 78% 0.00 in 0.00 W/m2
22:14 30.3 °F 24.0 °F 30.03 in ENE 9.0 mph 14.0 mph 77% 0.00 in 0.00 W/m2
22:19 30.3 °F 24.0 °F 30.03 in ENE 8.0 mph 15.0 mph 77% 0.00 in 0.00 W/m2
22:24 30.3 °F 24.3 °F 30.03 in ENE 12.0 mph 16.0 mph 78% 0.00 in 0.00 W/m2
22:29 30.2 °F 24.2 °F 30.03 in ENE 8.0 mph 16.0 mph 78% 0.00 in 0.00 W/m2
22:34 30.1 °F 24.1 °F 30.03 in ENE 11.0 mph 15.0 mph 78% 0.00 in 0.00 W/m2
22:39 30.0 °F 24.0 °F 30.03 in ENE 8.0 mph 15.0 mph 78% 0.00 in 0.00 W/m2
22:44 29.8 °F 23.8 °F 30.03 in ENE 9.0 mph 19.0 mph 78% 0.00 in 0.00 W/m2
22:49 29.7 °F 23.7 °F 30.03 in ENE 18.0 mph 20.0 mph 78% 0.00 in 0.00 W/m2
22:54 29.5 °F 23.5 °F 30.04 in NE 7.0 mph 20.0 mph 78% 0.00 in 0.00 W/m2
22:59 29.4 °F 23.4 °F 30.04 in ENE 13.0 mph 19.0 mph 78% 0.00 in 0.00 W/m2
23:04 29.3 °F 23.3 °F 30.04 in NE 12.0 mph 18.0 mph 78% 0.00 in 0.00 W/m2
23:09 29.2 °F 23.2 °F 30.04 in ENE 13.0 mph 18.0 mph 78% 0.00 in 0.00 W/m2
23:14 29.1 °F 23.4 °F 30.04 in NE 12.0 mph 18.0 mph 79% 0.00 in 0.00 W/m2
23:19 28.9 °F 23.2 °F 30.04 in ENE 13.0 mph 18.0 mph 79% 0.00 in 0.00 W/m2
23:24 28.7 °F 23.0 °F 30.04 in NE 12.0 mph 19.0 mph 79% 0.00 in 0.00 W/m2
23:29 28.5 °F 23.1 °F 30.04 in ENE 16.0 mph 19.0 mph 80% 0.00 in 0.00 W/m2
23:34 28.4 °F 23.0 °F 30.04 in ENE 16.0 mph 21.0 mph 80% 0.00 in 0.00 W/m2
23:39 28.3 °F 22.9 °F 30.04 in ENE 9.0 mph 21.0 mph 80% 0.00 in 0.00 W/m2
23:44 28.1 °F 23.0 °F 30.05 in ENE 16.0 mph 18.0 mph 81% 0.00 in 0.00 W/m2
23:49 28.0 °F 22.9 °F 30.05 in NE 12.0 mph 18.0 mph 81% 0.00 in 0.00 W/m2
23:54 27.8 °F 22.7 °F 30.04 in ENE 12.0 mph 20.0 mph 81% 0.00 in 0.00 W/m2
23:59 27.6 °F 22.5 °F 30.04 in NE 17.0 mph 20.0 mph 81% 0.00 in 0.00 W/m2
Bismarck, North Dakota, USA
Compliments of Weather Underground - 4 mb